TIANWANG 1B (TW-1B)
1 40927U 15051C   19227.35583826  .00007383  00000-0  11152-3 0  9999
2 40927  97.1356 272.7308 0008881 158.8387 329.9911 15.54981981218971
TIANWANG 1A (TW-1A)
1 40928U 15051D   19227.22047082  .00001891  00000-0  47768-4 0  9996
2 40928  97.1432 257.2488 0009830 218.3197 205.5810 15.41014190218039
LAPAN A2
1 40931U 15052B   19224.04603009  .00000128  00000-0 -71559-4 0  9993
2 40931   5.9991  28.9859 0014297 198.3742  92.6671 14.76606682209301
LQSAT
1 40958U 15057A   19226.75749467 -.00000014 +00000-0 +54384-5 0  9998
2 40958 097.8953 294.4022 0019387 060.7482 299.5662 14.73085799207211
CHUBUSAT 2
1 41338U 16012B   19226.91394945 +.00000220 +00000-0 +10342-4 0  9991
2 41338 031.0027 141.1114 0013797 309.3868 050.5546 15.00166252191511
CHUBUSAT 3
1 41339U 16012C   19227.14288127  .00000186  00000-0  77104-5 0  9993
2 41339  31.0114 137.6753 0013677 318.2783  41.6817 15.00340589191542
OUFTI-1
1 41458U 16025C   19226.80140228 +.00002037 +00000-0 +10658-3 0  9996
2 41458 098.1019 316.5511 0166772 164.6556 195.9817 15.05910841181167
E-STAR-2
1 41459U 16025D   19227.36317469  .00000643  00000-0  36914-4 0  9997
2 41459  98.1041 316.7741 0168446 164.0572 196.6039 15.05545701181222
AAUSAT 4
1 41460U 16025E   19227.20020584  .00002423  00000-0  12403-3 0  9995
2 41460  98.0970 317.9848 0158056 156.9772 203.8696 15.07468809181330
NUSAT 1
1 41557U 16033B   19227.37350162  .00000743  00000-0  30474-4 0  9999
2 41557  97.4177 314.5398 0015515  94.1395 266.1617 15.27302489178893
BEESAT 4
1 41619U 16040W   19226.73516100  .00000774  00000-0  35601-4 0  9992
2 41619  97.3636 287.8867 0011448 174.4383 185.6983 15.23220352162544
PRATHAM
1 41783U 16059A   19227.18674761  .00000029  00000-0  14977-4 0  9998
2 41783  98.0632 285.4864 0033116 201.0321 158.9521 14.63003692153951
ALSAT 1N
1 41789U 16059G   19227.12637750  .00000029  00000-0  14573-4 0  9997
2 41789  98.0670 287.5488 0028215 190.3229 169.7414 14.64254815154054
NAYIF 1
1 42017U 17008BX  19226.69625855  .00000804  00000-0  34441-4 0  9998
2 42017  97.3998 293.1951 0005450 344.2576  15.8492 15.25631429138612
MAX VALIER SAT
1 42778U 17036P   19226.72527023  .00000507  00000-0  25128-4 0  9997
2 42778  97.3503 283.1236 0013157  31.7087 328.4939 15.22082489118914
